FW4110 Weather Reports


time (UTC)temp
C
wind
direction
speed
KPH
gust
KPH
rain 1hr
cm
rain 24hr
cm
rain mn
cm
humidity
%
barometer
mb
20260903151539 32 282 1.6 9.7 0.00 0.00 0.00 76 1017.5
20260903150036 32 249 1.6 6.4 0.00 0.00 0.00 75 1017.3
20260903144531 31 311 1.6 8.0 0.00 0.00 0.00 78 1017.4
20260903143025 30 242 3.2 9.7 0.00 0.00 0.00 79 1017.4
20260903141523 30 275 1.6 9.7 0.00 0.00 0.00 80 1017.6
20260903140018 30 243 0.0 8.0 0.00 0.00 0.00 81 1017.6
20260903134516 29 241 1.6 9.7 0.00 0.00 0.00 81 1017.6
20260903133018 29 245 1.6 8.0 0.00 0.00 0.00 81 1017.6
20260903131512 29 276 0.0 3.2 0.00 0.00 0.00 81 1017.7
20260903130008 28 152 0.0 0.0 0.00 0.00 0.00 85 1017.6
20260903124515 27 152 0.0 3.2 0.00 0.00 0.00 86 1017.5
20260903123004 26 142 0.0 0.0 0.00 0.00 0.00 88 1017.4
20260903121502 26 142 0.0 0.0 0.00 0.00 0.00 87 1017.4
20260903120104 -17 0.0 0.0 0.00 0.00 0.00 1017.4
20260903114550 -17 0.0 0.0 0.00 0.00 0.00 1017.2
20260903113045 -17 0.0 0.0 0.00 0.00 0.00 1017.3
20260903111543 -17 0.0 0.0 0.00 0.00 0.00 1017.2
20260903110040 -17 0.0 0.0 0.00 0.00 0.00 1017.2
20260903104530 -17 0.0 0.0 0.00 0.00 0.00 1017.1
20260903103028 -17 0.0 0.0 0.00 0.00 0.00 1016.8
20260903101534 -17 145 1.6 4.8 0.00 0.00 0.00 1016.9
20260903100016 26 156 0.0 4.8 0.00 0.00 0.00 85 1016.8
20260903094512 26 164 1.6 3.2 0.00 0.00 0.00 85 1016.8
20260903093013 26 167 0.0 3.2 0.00 0.00 0.00 85 1016.7
20260903091512 26 156 0.0 4.8 0.00 0.00 0.00 85 1016.7
20260903090006 26 161 0.0 3.2 0.00 0.00 0.00 85 1016.7
20260903084504 26 181 0.0 1.6 0.00 0.00 0.00 86 1016.8
20260903083002 26 168 1.6 4.8 0.00 0.00 0.00 85 1016.7
20260903081602 26 163 0.0 4.8 0.00 0.00 0.00 85 1016.7
20260903080056 27 163 1.6 3.2 0.00 0.00 0.00 85 1016.6
20260903074554 27 163 0.0 3.2 0.00 0.00 0.00 85 1016.5
20260903073055 27 152 0.0 8.0 0.00 0.00 0.00 85 1016.4
20260903071550 27 150 1.6 6.4 0.00 0.00 0.00 85 1016.5
20260903070046 27 152 3.2 6.4 0.00 0.00 0.00 85 1016.6
20260903064544 27 169 1.6 4.8 0.00 0.00 0.00 85 1016.7
20260903063108 27 179 0.0 3.2 0.00 0.00 0.00 85 1016.7
20260903061540 27 154 0.0 4.8 0.00 0.00 0.00 85 1016.7
20260903060035 27 159 1.6 6.4 0.00 0.00 0.00 85 1016.6
20260903054531 28 175 3.2 6.4 0.00 0.00 0.00 85 1016.5
20260903053029 28 145 1.6 4.8 0.00 0.00 0.00 85 1016.5
20260903051526 28 168 3.2 6.4 0.00 0.00 0.00 84 1016.6
20260903050023 28 145 1.6 8.0 0.00 0.00 0.00 84 1016.5
20260903044520 28 150 3.2 8.0 0.00 0.00 0.00 84 1016.3
20260903043019 28 169 1.6 6.4 0.00 0.00 0.00 83 1016.4
20260903041521 29 155 1.6 9.7 0.00 0.00 0.00 82 1016.3
20260903040014 29 156 3.2 11.3 0.00 0.00 0.00 82 1016.3
20260903034522 29 151 3.2 9.7 0.00 0.00 0.00 81 1016.3
20260903033011 29 132 3.2 9.7 0.00 0.00 0.00 81 1016.4
20260903031507 30 178 0.0 4.8 0.00 0.00 0.00 81 1016.4
20260903030009 30 168 0.0 4.8 0.00 0.00 0.00 81 1016.3
20260903024506 30 134 0.0 3.2 0.00 0.00 0.00 80 1016.4
20260903023003 30 175 0.0 8.0 0.00 0.00 0.00 80 1016.2
20260903021501 30 182 0.0 3.2 0.00 0.00 0.00 79 1016.3
20260903020059 30 154 1.6 8.0 0.00 0.00 0.00 79 1016.1
20260903014556 30 165 0.0 4.8 0.00 0.00 0.00 79 1015.9
20260903013055 31 155 0.0 3.2 0.00 0.00 0.00 78 1015.6
20260903011604 31 165 0.0 4.8 0.00 0.00 0.00 78 1015.5
20260903010051 31 217 0.0 3.2 0.00 0.00 0.00 77 1015.4
20260903004548 31 175 0.0 0.0 0.00 0.00 0.00 76 1015.4
20260903003047 32 175 0.0 1.6 0.00 0.00 0.00 73 1015.3
20260903001546 33 163 0.0 3.2 0.00 0.00 0.00 71 1015.2
20260903000043 34 171 1.6 4.8 0.00 0.00 0.00 68 1015.2
20260902234545 35 191 0.0 4.8 0.00 0.00 0.00 65 1015.2
20260902233049 35 167 0.0 8.0 0.00 0.00 0.00 63 1015.2
20260902231550 36 153 0.0 4.8 0.00 0.00 0.00 61 1015.2
20260902230035 36 249 1.6 8.0 0.00 0.00 0.00 61 1015.2
20260902224539 36 251 1.6 11.3 0.00 0.00 0.00 60 1015.2
20260902223030 37 208 4.8 11.3 0.00 0.00 0.00 58 1015.3
20260902221529 37 170 0.0 11.3 0.00 0.00 0.00 57 1015.2
20260902220028 37 194 4.8 11.3 0.00 0.00 0.00 58 1015.4
20260902214529 37 235 4.8 12.9 0.00 0.00 0.00 58 1015.2
20260902213024 36 182 0.0 12.9 0.00 0.00 0.00 61 1015.5
20260902211529 37 204 3.2 14.5 0.00 0.00 0.00 60 1015.8
20260902210020 37 26 0.0 11.3 0.00 0.00 0.00 59 1015.8
20260902204518 37 199 3.2 14.5 0.00 0.00 0.00 60 1016.0
20260902203016 37 163 1.6 11.3 0.00 0.00 0.00 58 1016.1
20260902201512 37 238 1.6 9.7 0.00 0.00 0.00 59 1016.3
20260902200008 37 327 3.2 12.9 0.00 0.00 0.00 59 1016.6
20260902194507 36 220 1.6 8.0 0.00 0.00 0.00 60 1016.7
20260902193101 36 276 0.0 11.3 0.00 0.00 0.00 62 1016.9
20260902191557 37 187 4.8 12.9 0.00 0.00 0.00 62 1017.0
20260902190051 36 340 4.8 11.3 0.00 0.00 0.00 62 1017.1
20260902184554 36 43 1.6 12.9 0.00 0.00 0.00 61 1017.2
20260902183042 35 348 3.2 9.7 0.00 0.00 0.00 67 1017.3
20260902181538 36 52 0.0 11.3 0.00 0.00 0.00 67 1017.4
20260902180029 36 229 1.6 8.0 0.00 0.00 0.00 67 1017.5
20260902174523 35 294 3.2 12.9 0.00 0.00 0.00 70 1017.7
20260902173018 35 334 4.8 16.1 0.00 0.00 0.00 71 1018.0
20260902171513 35 264 1.6 11.3 0.00 0.00 0.00 71 1018.3
20260902170006 35 262 1.6 9.7 0.00 0.00 0.00 72 1018.5
20260902164559 33 244 3.2 14.5 0.00 0.00 0.00 74 1018.6
20260902163102 33 7 1.6 14.5 0.00 0.00 0.00 73 1018.6
20260902161553 33 254 6.4 16.1 0.00 0.00 0.00 73 1018.7
20260902160041 33 145 3.2 9.7 0.00 0.00 0.00 73 1018.8
20260902154535 33 268 4.8 14.5 0.00 0.00 0.00 73 1018.9
20260902153029 32 28 4.8 12.9 0.00 0.00 0.00 73 1018.9